www.pogodaiklimat.ru

Погода и климат >> Архив погоды >> Мексика >> Arriaga


ПОГОДА в Arriaga

  • Прогноз погоды в Arriaga
  • Монитор погоды в Arriaga
  • Климат города

АРХИВ ПОГОДЫ в Arriaga

Время (UTC), дата Ветер
(напр.,м/с)
 
Видим.   Явления Облачность Т
(С)
Тd
(С)
f
(%)
Тe
(С)
Тes
(С)
Комфортность P
(гПа)
Po
(гПа)
Тmin
(С)
Tmax
(С)
R
(мм)
R24
(мм)
S
(см)
09 18.06 штиль 0 1000 м 8/0 2000 м
[Ac lent]
+25.1 +23.0 88 +33 -93 очень
душно
1012.6 1007.0
12 18.06 штиль 0 2000 м 10/0 2000 м
[Ac trans]
+25.8 +23.0 85 +34 +34 очень
душно
1013.3 1007.7 +19.8 +32.2
15 18.06 штиль 0 5000 м 8/0 2000 м
[Ac lent]
+26.2 +24.6 91 +37 +42 очень
душно
1014.2 1008.6
18 18.06 штиль 0 5000 м 8/0 2000 м
[Ac As]
+30.8 +27.1 81 +49 +62 опасность
перегрева
1013.8 1008.3 +19.8 +32.2
21 18.06 штиль 0 5000 м 8/4 840 м
[Sc Cs]
+32.0 +28.1 80 +53 +62 опасность
перегрева
1012.4 1006.9
00 19.06 штиль 0 3000 м 10/5 600 м
[Sc Ac lent]
+29.2 +27.1 88 +46 +46 опасность
перегрева
1012.1 1006.6 +19.8 +34.4
03 19.06 штиль 0 1000 м 4/4 840 м
[Sc diur, vesp]
+28.0 +26.7 93 +44 +44 опасность
перегрева
1013.7 1008.2
06 19.06 штиль 0 1000 м ясно +26.6 +25.0 91 +38 +38 очень
душно
1013.8 1008.3 +19.8 +34.4
09 19.06 штиль 0 1000 м ясно +25.0 +23.6 92 +34 +34 очень
душно
1012.8 1007.2
12 19.06 штиль 0 3000 м 4/0 2000 м
[As trans]
+24.2 +22.8 92 +32 +32 очень
душно
1012.5 1006.9 +20.5 +34.4
15 19.06 штиль 0 5000 м 5/5 840 м
[Cb cap]
+29.0 +26.9 88 +45 +52 опасность
перегрева
1013.2 1007.6
18 19.06 штиль 0 5000 м 8/4 840 м
[Cb cap Ac lent]
+32.4 +27.5 75 +51 +60 опасность
перегрева
1012.8 1007.3 +20.5 +34.6
21 19.06 штиль 0 5000 м 8/4 840 м
[Sc Cs]
+33.6 +28.5 75 +56 +65 опасность
перегрева
1011.4 1005.9
00 20.06 штиль 0 5000 м 8/4 600 м
[Sc Cs]
+30.4 +26.7 81 +47 +48 опасность
перегрева
1010.9 1005.4 +20.5 +35.0
03 20.06 штиль 0 3000 м 4/0
[Cs]
+28.0 +26.7 93 +44 +44 опасность
перегрева
1012.5 1007.0
12 20.06 штиль 0 1000 м 4/0 2000 м
[Ac lent]
+25.0 +24.7 98 +35 +35 очень
душно
1011.9 1006.3 +24.0 +35.0
15 20.06 штиль 0 5000 м 6/0 2000 м
[Ac lent]
+28.8 +27.5 93 +47 +54 опасность
перегрева
1013.2 1007.6
18 20.06 штиль 0 4000 м слабая морось 8/8 600 м
[Sc]
+28.4 +24.9 81 +41 +47 опасность
перегрева
1013.9 1008.4 0.5
21 20.06 штиль 0 5000 м 6/0 2000 м
[Ac lent]
+30.6 +29.0 91 +53 +63 опасность
перегрева
1011.2 1005.7
00 21.06 штиль 0 5000 м 6/0 2000 м
[Ac inh]
+30.4 +27.2 83 +48 +49 опасность
перегрева
1010.1 1004.6 +24.0 +35.0
03 21.06 штиль 0 100 м 4/0 2000 м
[Ac lent]
+27.8 +26.5 93 +43 +43 опасность
перегрева
1011.8 1006.3
06 21.06 штиль 0 100 м 4/0 2000 м
[Ac lent]
+25.0 +25.1 100 +36 +36 очень
душно
1012.9 1007.4 +24.0 +35.0
12 21.06 штиль 0 1000 м 5/5 800 м
[Sc diur, vesp]
+23.8 +22.7 94 +31 +31 очень
душно
1011.8 1006.2 +20.0 +35.0
15 21.06 штиль 0 5000 м 6/0 2000 м
[Ac As]
+28.6 +25.9 85 +43 +51 опасность
перегрева
1013.3 1007.7
18 21.06 штиль 0 2000 м 8/3 840 м
[Cu med, cong Cs]
+29.8 +26.6 83 +46 +64 опасность
перегрева
1012.7 1007.2 +22.0 +31.4
21 21.06 Ю 1 4000 м 5/5 800 м
[Sc]
+30.2 +26.0 78 +45 +53 опасность
перегрева
1010.2 1005.2
00 22.06 штиль 0 4000 м 8/0 2000 м
[Ac As]
+29.2 +26.2 84 +44 +45 опасность
перегрева
1010.6 1005.1 +22.0 +33.2
03 22.06 штиль 0 1000 м 6/0 2000 м
[Ac As]
+26.2 +24.3 89 +36 +36 очень
душно
1012.2 1006.7
06 22.06 штиль 0 1000 м 4/4 800 м
[Sc]
+25.0 +23.6 92 +34 +34 очень
душно
1012.4 1006.7 +22.0 +33.2
12 22.06 штиль 0 1000 м 6/0 2000 м
[Ac As]
+24.8 +21.5 82 +32 +32 очень
душно
1013.6 1008.0 +19.5 +33.2
15 22.06 штиль 0 4000 м 4/4 800 м
[Sc diur, vesp]
+25.8 +22.7 83 +34 +43 очень
душно
1013.5 1007.9
18 22.06 штиль 0 5000 м 6/6 800 м
[Cu med, cong]
+30.6 +25.2 73 +44 +56 опасность
перегрева
1013.2 1007.6 +19.5 +31.8
21 22.06 Ю 1 5000 м 5/5 800 м
[Cu med, cong]
+32.0 +27.4 77 +51 +59 опасность
перегрева
1010.6 1005.1
00 23.06 штиль 0 5000 м 8/0 2000 м
[Ac lent Cs]
+30.0 +26.6 82 +46 +47 опасность
перегрева
1009.8 1004.3 +19.5 +33.9
03 23.06 штиль 0 1000 м 8/4 800 м
[Cb cap]
+28.2 +24.3 79 +39 +39 очень
душно
1012.4 1006.9
06 23.06 С 1 1000 м 9/5 800 м
[Cb cap]
+26.2 +24.3 89 +36 +36 очень
душно
1014.3 1008.8 +19.5 +33.9
09 23.06 штиль 0 1000 м 3/3 840 м
[Sc diur, vesp]
+25.8 +24.7 94 +37 +37 очень
душно
1011.2 1005.7
12 23.06 штиль 0 2000 м 6/0
[Cs]
+24.2 +23.4 95 +32 +33 очень
душно
1011.5 1006.0 +19.5 +33.9
15 23.06 штиль 0 3000 м 5/0
[Cs]
+27.8 +25.4 87 +41 +54 опасность
перегрева
1012.5 1007.0
18 23.06 штиль 0 3000 м 4/0
[Cs]
+33.2 +28.3 76 +55 +82 опасность
перегрева
1011.8 1006.3 +19.5 +35.0
21 23.06 штиль 0 4000 м 3/3 840 м
[Cu med, cong]
+33.8 +27.3 69 +53 +65 опасность
перегрева
1010.1 1004.6
00 24.06 штиль 0 3000 м 3/3 600 м
[Cu med, cong]
+30.8 +26.3 77 +47 +47 опасность
перегрева
1010.0 1004.5 +19.5 +36.0
03 24.06 штиль 0 1000 м 3/3 840 м
[Sc diur, vesp]
+28.0 +26.6 92 +43 +43 опасность
перегрева
1012.3 1006.8
06 24.06 штиль 0 1000 м 4/0 2000 м
[Ac trans]
+25.8 +24.7 94 +37 +37 очень
душно
1013.0 1007.6 +19.5 +36.0
09 24.06 штиль 0 1000 м 5/0 2000 м
[Ac trans]
+24.4 +23.2 93 +33 +33 очень
душно
1011.4 1005.9
12 24.06 штиль 0 2000 м 5/0
[Cs]
+23.8 +22.7 94 +31 +31 очень
душно
1011.4 1005.9 +19.0 +36.0
15 24.06 С 1 4000 м 4/0
[Cs]
+30.0 +24.6 73 +43 +54 опасность
перегрева
1012.1 1006.5
18 24.06 штиль 0 5000 м 1/1 840 м
[Cu med, cong]
+33.4 +26.3 66 +50 +76 опасность
перегрева
1011.9 1006.4 +19.0 +34.8
21 24.06 С 1 5000 м ясно +34.2 +27.7 69 +54 +70 опасность
перегрева
1009.5 1004.1
03 25.06 штиль 0 1000 м ясно +29.2 +27.0 88 +46 +46 опасность
перегрева
1010.8 1005.3
06 25.06 штиль 0 100 м 4/4 2000 м
[Sc diur, vesp]
+28.2 +26.6 91 +44 +44 опасность
перегрева
1011.4 1005.9 +19.0 +36.0

 

Местоположение метеостанции Arriaga (Мексика): широта 16.23 долгота -93.90 высота над уровнем моря 48 м.

В архиве по умолчанию представлена погода в Arriaga за последнюю неделю. Архивные данные за месяц целиком и за предыдущие месяцы, начиная с января 2011 года, Вы можете получить, выбрав интересующий диапазон дат из раскрывающегося списка и нажав кнопку "Ввод!".


*Определитесь, кто Вы:
робот инопланетянин человек

Внимание! Время в таблицах - всемирное. Для получения местного времени необходимо прибавить поправку, которая в Arriaga равна -6 ч.

Смотрите также архив погоды в соседних городах и на ближайших метеорологических станциях:

Погода в Tuxtla Gutierrez (Мексика) (100 км)
Погода в Salina Cruz (Мексика) (137 км)
Погода в Sn. Cristobal Las Casas (Мексика) (147 км)
Погода в Comitan (Мексика) (189 км)
Погода в Coatzacoalcos (Мексика) (218 км)
Погода в Villahermosa (Мексика) (220 км)
Погода в Tapachula City (Мексика) (229 км)
Погода в Huehuetenango (Гватемала) (280 км)
Погода в Puerto Angel (Мексика) (283 км)
Погода в Oaxaca (Мексика) (313 км)

Пояснения к столбцам:

Ветер - указаны скорость ветра в м/с - средняя за 10 мин, порывы в срок и между сроками (в фигурных скобках) и направление, откуда дует ветер: С - северный, СВ - северо-восточный, В - восточный, ЮВ - юго-восточный, Ю - южный, ЮЗ - юго-западный, З - западный, СЗ - северо-западный.
Видимость - горизонтальная дальность видимости в метрах или километрах. При видимости от 1 до 10 км при отсутствии осадков обычно наблюдается дымка, при ухудшении видимости до 1 км и менее - туман. В сухую погоду видимость может ухудшаться дымом, пылью или мглою.
Явления - указаны атмосферные явления, наблюдавшиеся в срок или в последний час перед сроком; фигурными скобками обозначены явления, наблюдавшиеся между сроками (за 1-3 часа до срока); квадратными скобками обозначены град или гололедные отложения с указанием их диаметра в мм.
Облачность - указаны через наклонную черту общая и нижняя облачность в баллах и высота нижней границы облаков в метрах; квадратными скобками обозначены формы облаков: Ci - перистые, Cs - перисто-слоистые, Cc - перисто-кучевые, Ac - высококучевые, As - высокослоистые, Sc - слоисто-кучевые, Ns - слоисто-дождевые, Cu - кучевые, Cb - кучево-дождевые. Подробнее классификацию облаков см. в Атласе облаков (PDF).
T - Температура воздуха - температура, измеренная на высоте 2 м над землей.
Td - Температура точки росы - температура, при понижении до которой содержащийся в воздухе водяной пар достигнет насыщения.
f - Относительная влажность воздуха - влажноcть воздуха, измеренная на высоте 2 м над землей.
Te - Эффективная температура - температура, которую ощущает одетый по сезону человек в тени. Характеристика душности погоды. При расчете учитывается влияние влажности воздуха и скорости ветра на теплоощущения человека.
Tes - Эффективная температура на солнце - температура, которую ощущает человек, с поправкой на солнечный нагрев. Характеристика знойности погоды. Зависит от высоты солнца над горизонтом, облачности и скорости ветра. Ночью, в пасмурную погоду, а также при ветре 12 м/с и более поправка равна нулю.
P - Атмосферное давление - приведенное к уровню моря атмосферное давление.
Po - Атмосферное давление - измеренное на уровне метеостанции атмосферное давление.
Tmin - Минимальная температура - минимум температуры воздуха на высоте 2 м над землей.
Tmax - Максимальная температура - максимум температуры воздуха на высоте 2 м над землей.
R - Количество осадков - Количество выпавших осадков за период времени, мм. При наведении курсора мыши на число - период времени, за который выпало указанное количество осадков.
R24 - Количество осадков - Количество выпавших осадков за 24 часа, мм.
S - Снежный покров - Высота снежного покрова, см. При наведении курсора мыши на число - состояние снежного покрова и степень покрытия местности в баллах.